contact:dominique.lefevre@mio.osupytheas.fr, maurice.libes@osupytheas.fr, didier.mallarino@osupytheas.fr
Project:EMSO http://www.emso-fr.org/EMSO-France
Depth: 2436.0 m
Title:EMSO Ligure Ouest : Data MII capteur AQUADOPP
Date,Latitude,Longitude,X_East,Y_North,Z_Up,Amplitude_X,Amplitude_Y,Amplitude_Z,Batterie,SoundSpeed,Heading,Pitch,Roll,Pressure,TIS,Speed,Direction
, degrees North, degrees East, m.s-1, m.s-1,m.s-1, 1, 1, 1, Volt, m.s-1, degree, degree, degree, dbar, degree_C, m.s-1, degree
2020-10-11T00:04:03,42.805,6.029,0.006,-0.001,0.022,102.0,104.0,99.0,13.4,1505.3,327.4,-0.7,1.8,2470.437,13.31,0.006,99.5
2020-10-11T00:07:03,42.805,6.029,0.002,0.002,0.01,101.0,105.0,100.0,13.4,1505.3,327.7,-0.7,1.8,2470.476,13.32,0.002,45.0
2020-10-11T00:10:03,42.805,6.029,0.037,-0.002,0.049,102.0,104.0,99.0,13.4,1505.3,326.3,-0.7,1.8,2470.457,13.32,0.037,93.1
2020-10-11T00:13:03,42.805,6.029,0.029,-0.017,-0.014,102.0,106.0,99.0,13.3,1505.3,324.6,-0.7,1.8,2470.435,13.32,0.033,120.4
2020-10-11T00:16:03,42.805,6.029,-0.014,0.006,0.01,101.0,105.0,99.0,13.4,1505.3,325.4,-0.7,1.8,2470.433,13.33,0.015,293.2
2020-10-11T00:19:03,42.805,6.029,-0.02,-0.007,-0.017,101.0,106.0,99.0,13.4,1505.3,326.2,-0.7,1.8,2470.417,13.33,0.021,250.7
2020-10-11T00:22:03,42.805,6.029,0.018,-0.006,0.004,102.0,105.0,99.0,13.4,1505.3,324.5,-0.7,1.8,2470.473,13.33,0.018,108.4
2020-10-11T00:25:03,42.805,6.029,0.019,0.01,0.035,101.0,106.0,100.0,13.3,1505.3,325.1,-0.7,1.8,2470.395,13.33,0.021,62.2
2020-10-11T00:28:03,42.805,6.029,-0.004,-0.013,-0.007,101.0,106.0,99.0,13.4,1505.3,326.9,-0.7,1.8,2470.447,13.33,0.013,197.1
2020-10-11T00:31:03,42.805,6.029,0.008,-0.02,-0.008,101.0,106.0,99.0,13.4,1505.3,324.7,-0.7,1.8,2470.434,13.33,0.021,158.2
2020-10-11T00:34:03,42.805,6.029,0.022,0.009,0.039,102.0,104.0,99.0,13.4,1505.3,325.5,-0.7,1.9,2470.407,13.33,0.023,67.8
2020-10-11T00:37:03,42.805,6.029,-0.001,-0.002,-0.005,101.0,106.0,100.0,13.4,1505.3,323.0,-0.7,1.8,2470.448,13.33,0.002,206.6
2020-10-11T00:40:03,42.805,6.029,-0.006,0.02,0.0,101.0,105.0,99.0,13.3,1505.3,326.0,-0.7,1.8,2470.414,13.33,0.02,343.3
2020-10-11T00:43:03,42.805,6.029,0.032,-0.009,0.037,102.0,105.0,100.0,13.4,1505.3,324.4,-0.7,1.8,2470.427,13.33,0.033,105.7
2020-10-11T00:46:03,42.805,6.029,0.024,-0.015,0.032,101.0,109.0,99.0,13.3,1505.3,326.0,-0.7,1.8,2470.411,13.33,0.028,122.0
2020-10-11T00:49:03,42.805,6.029,0.042,0.005,0.034,101.0,106.0,99.0,13.4,1505.3,324.7,-0.7,1.8,2470.455,13.33,0.042,83.2
2020-10-11T00:52:03,42.805,6.029,-0.029,-0.008,-0.02,100.0,106.0,100.0,13.3,1505.3,324.1,-0.7,1.8,2470.449,13.33,0.03,254.6
2020-10-11T00:55:03,42.805,6.029,0.045,-0.003,0.039,102.0,105.0,99.0,13.4,1505.3,323.8,-0.7,1.8,2470.373,13.33,0.045,93.8
2020-10-11T00:58:03,42.805,6.029,0.007,0.002,0.0,101.0,106.0,100.0,13.4,1505.3,325.7,-0.7,1.8,2470.46,13.33,0.007,74.1
2020-10-11T01:04:03,42.805,6.029,0.001,-0.004,0.014,102.0,109.0,100.0,13.3,1505.3,325.5,-0.7,1.8,2470.457,13.31,0.004,166.0
2020-10-11T01:07:03,42.805,6.029,-0.033,0.006,-0.025,102.0,106.0,100.0,13.4,1505.3,327.0,-0.7,1.9,2470.47,13.32,0.033,280.3
2020-10-11T01:10:03,42.805,6.029,0.019,-0.04,-0.025,104.0,106.0,101.0,13.3,1505.3,327.5,-0.7,1.8,2470.446,13.32,0.044,154.6
2020-10-11T01:13:03,42.805,6.029,0.045,-0.001,0.018,102.0,106.0,99.0,13.4,1505.3,324.8,-0.7,1.8,2470.48,13.32,0.045,91.3
2020-10-11T01:16:03,42.805,6.029,0.02,-0.009,0.021,102.0,105.0,98.0,13.4,1505.3,324.0,-0.7,1.8,2470.419,13.32,0.021,114.2
2020-10-11T01:19:03,42.805,6.029,0.007,0.005,0.017,102.0,106.0,100.0,13.4,1505.3,324.3,-0.7,1.8,2470.448,13.33,0.008,54.5
2020-10-11T01:22:03,42.805,6.029,0.052,-0.012,0.042,102.0,106.0,99.0,13.4,1505.3,325.9,-0.7,1.8,2470.43,13.33,0.053,103.0
2020-10-11T01:25:03,42.805,6.029,0.038,-0.017,0.021,103.0,104.0,99.0,13.4,1505.3,323.7,-0.7,1.8,2470.429,13.33,0.041,114.1
2020-10-11T01:28:03,42.805,6.029,0.047,0.008,0.044,102.0,106.0,100.0,13.4,1505.3,326.8,-0.7,1.8,2470.41,13.33,0.047,80.3
2020-10-11T01:31:03,42.805,6.029,0.009,-0.006,-0.004,101.0,106.0,100.0,13.4,1505.3,325.6,-0.7,1.8,2470.443,13.33,0.01,123.7
2020-10-11T01:34:03,42.805,6.029,0.026,0.001,0.033,102.0,105.0,100.0,13.3,1505.3,327.6,-0.7,1.8,2470.435,13.33,0.026,87.8
2020-10-11T01:37:03,42.805,6.029,0.001,-0.01,-0.037,100.0,106.0,100.0,13.4,1505.3,323.4,-0.7,1.8,2470.419,13.33,0.01,174.3
2020-10-11T01:40:03,42.805,6.029,0.025,-0.004,0.048,101.0,105.0,101.0,13.4,1505.3,328.0,-0.7,1.9,2470.448,13.33,0.025,99.1
2020-10-11T01:43:03,42.805,6.029,0.029,0.005,0.007,102.0,106.0,99.0,13.4,1505.3,325.9,-0.7,1.8,2470.448,13.33,0.029,80.2
2020-10-11T01:46:03,42.805,6.029,0.055,0.001,0.032,100.0,105.0,100.0,13.4,1505.3,327.9,-0.7,1.9,2470.428,13.33,0.055,89.0
2020-10-11T01:49:03,42.805,6.029,0.006,0.007,0.006,100.0,106.0,100.0,13.3,1505.3,324.2,-0.7,1.8,2470.479,13.33,0.009,40.6
2020-10-11T01:52:03,42.805,6.029,0.04,-0.009,-0.001,101.0,106.0,99.0,13.4,1505.3,322.9,-0.7,1.8,2470.442,13.33,0.041,102.7
2020-10-11T01:55:03,42.805,6.029,-0.022,-0.024,-0.04,102.0,107.0,100.0,13.4,1505.3,326.4,-0.7,1.8,2470.434,13.33,0.032,222.5
2020-10-11T01:58:03,42.805,6.029,-0.002,-0.005,0.0,100.0,107.0,100.0,13.4,1505.3,325.1,-0.7,1.8,2470.433,13.33,0.005,201.8
2020-10-11T02:04:03,42.805,6.029,0.031,0.013,-0.013,103.0,106.0,99.0,13.3,1505.3,326.3,-0.7,1.8,2470.452,13.31,0.033,67.3
2020-10-11T02:07:03,42.805,6.029,0.018,0.01,-0.023,100.0,108.0,100.0,13.4,1505.3,327.4,-0.7,1.8,2470.478,13.32,0.02,60.9
2020-10-11T02:10:03,42.805,6.029,-0.039,0.014,-0.039,101.0,108.0,99.0,13.4,1505.3,326.6,-0.7,1.8,2470.459,13.32,0.041,289.7
2020-10-11T02:13:03,42.805,6.029,-0.043,0.01,-0.026,101.0,107.0,99.0,13.3,1505.3,327.4,-0.7,1.8,2470.469,13.32,0.044,283.1
2020-10-11T02:16:03,42.805,6.029,-0.03,-0.008,-0.033,101.0,107.0,101.0,13.3,1505.3,326.5,-0.7,1.8,2470.451,13.33,0.031,255.1
2020-10-11T02:19:03,42.805,6.029,-0.021,-0.006,-0.013,101.0,107.0,100.0,13.4,1505.3,326.2,-0.7,1.8,2470.47,13.33,0.021,254.1
2020-10-11T02:22:03,42.805,6.029,0.016,0.0,0.038,100.0,108.0,100.0,13.4,1505.3,324.8,-0.7,1.8,2470.455,13.33,0.016,90.0
2020-10-11T02:25:03,42.805,6.029,-0.003,0.011,0.022,101.0,107.0,99.0,13.4,1505.3,324.0,-0.7,1.8,2470.446,13.33,0.011,344.7
2020-10-11T02:28:03,42.805,6.029,0.007,0.003,-0.017,103.0,106.0,99.0,13.4,1505.3,326.2,-0.7,1.8,2470.445,13.33,0.007,66.8
2020-10-11T02:31:03,42.805,6.029,-0.012,0.004,-0.012,102.0,108.0,101.0,13.3,1505.3,327.6,-0.7,1.8,2470.462,13.33,0.012,288.4
2020-10-11T02:34:03,42.805,6.029,0.0,0.014,-0.013,101.0,106.0,99.0,13.3,1505.3,323.4,-0.7,1.8,2470.43,13.33,0.014,0.0
2020-10-11T02:37:03,42.805,6.029,-0.049,-0.022,-0.062,103.0,108.0,99.0,13.3,1505.3,327.7,-0.7,1.8,2470.419,13.33,0.053,245.8
2020-10-11T02:40:03,42.805,6.029,-0.051,0.0,-0.057,103.0,107.0,99.0,13.3,1505.3,323.9,-0.7,1.8,2470.403,13.33,0.051,270.0
2020-10-11T02:43:03,42.805,6.029,-0.05,0.002,-0.05,101.0,108.0,100.0,13.4,1505.3,324.3,-0.7,1.8,2470.414,13.33,0.05,272.3
2020-10-11T02:46:03,42.805,6.029,-0.057,-0.004,-0.022,101.0,107.0,100.0,13.4,1505.4,326.7,-0.7,1.8,2470.404,13.34,0.057,266.0
2020-10-11T02:49:03,42.805,6.029,0.005,0.012,0.022,101.0,108.0,100.0,13.4,1505.4,327.4,-0.7,1.8,2470.432,13.34,0.013,22.6
2020-10-11T02:52:03,42.805,6.029,0.009,-0.008,0.0,102.0,109.0,99.0,13.4,1505.4,326.4,-0.7,1.8,2470.428,13.34,0.012,131.6
2020-10-11T02:55:03,42.805,6.029,-0.032,-0.014,-0.018,102.0,108.0,98.0,13.3,1505.4,327.5,-0.7,1.9,2470.416,13.34,0.034,246.4
2020-10-11T02:58:03,42.805,6.029,-0.053,0.005,-0.033,103.0,109.0,100.0,13.4,1505.4,324.7,-0.7,1.8,2470.429,13.34,0.053,275.4
2020-10-11T03:04:03,42.805,6.029,0.006,-0.008,0.0,102.0,109.0,101.0,13.4,1505.3,322.7,-0.8,1.8,2470.491,13.32,0.01,143.1
2020-10-11T03:07:03,42.805,6.029,0.02,-0.01,-0.024,102.0,110.0,100.0,13.3,1505.3,324.9,-0.7,1.8,2470.453,13.33,0.022,116.6
2020-10-11T03:10:03,42.805,6.029,0.013,-0.008,0.027,102.0,107.0,100.0,13.3,1505.3,325.3,-0.7,1.9,2470.427,13.33,0.015,121.6
2020-10-11T03:13:03,42.805,6.029,0.024,0.006,0.028,102.0,107.0,100.0,13.4,1505.3,325.3,-0.7,1.8,2470.445,13.33,0.024,76.0
2020-10-11T03:16:03,42.805,6.029,0.032,-0.007,-0.011,101.0,110.0,99.0,13.4,1505.3,326.4,-0.7,1.9,2470.457,13.33,0.032,102.3
2020-10-11T03:19:03,42.805,6.029,0.007,0.01,0.012,103.0,109.0,100.0,13.3,1505.3,327.7,-0.7,1.9,2470.425,13.33,0.012,35.0
2020-10-11T03:22:03,42.805,6.029,0.02,0.007,0.012,102.0,109.0,101.0,13.4,1505.4,325.1,-0.7,1.9,2470.424,13.34,0.021,70.7
2020-10-11T03:25:03,42.805,6.029,0.004,0.021,0.017,103.0,110.0,100.0,13.4,1505.4,325.9,-0.7,1.8,2470.388,13.34,0.021,10.8
2020-10-11T03:28:03,42.805,6.029,0.037,-0.002,0.035,102.0,109.0,100.0,13.3,1505.4,325.7,-0.7,1.9,2470.435,13.34,0.037,93.1
2020-10-11T03:31:03,42.805,6.029,-0.002,0.01,0.018,102.0,109.0,99.0,13.4,1505.4,324.3,-0.7,1.8,2470.428,13.34,0.01,348.7
2020-10-11T03:34:03,42.805,6.029,0.037,0.015,0.069,102.0,109.0,100.0,13.3,1505.4,325.9,-0.7,1.9,2470.424,13.34,0.039,67.9
2020-10-11T03:37:03,42.805,6.029,0.034,0.019,0.045,100.0,110.0,100.0,13.4,1505.4,327.4,-0.7,1.8,2470.421,13.34,0.038,60.8
2020-10-11T03:40:03,42.805,6.029,0.004,0.0,0.032,102.0,109.0,101.0,13.4,1505.4,323.4,-0.7,1.8,2470.421,13.34,0.004,90.0
2020-10-11T03:43:03,42.805,6.029,0.024,-0.001,0.004,101.0,109.0,100.0,13.4,1505.4,325.1,-0.7,1.8,2470.389,13.34,0.024,92.4
2020-10-11T03:46:03,42.805,6.029,0.038,0.009,0.074,101.0,108.0,101.0,13.4,1505.3,325.8,-0.7,1.8,2470.398,13.33,0.039,76.7
2020-10-11T03:49:03,42.805,6.029,-0.045,0.005,-0.015,102.0,110.0,99.0,13.3,1505.3,326.8,-0.7,1.8,2470.404,13.33,0.045,276.3
2020-10-11T03:52:03,42.805,6.029,-0.021,0.003,0.0,103.0,110.0,99.0,13.4,1505.3,324.5,-0.7,1.8,2470.42,13.33,0.021,278.1
2020-10-11T03:55:03,42.805,6.029,-0.014,0.007,-0.013,103.0,110.0,99.0,13.4,1505.3,322.9,-0.7,1.9,2470.399,13.33,0.015,296.6
2020-10-11T03:58:03,42.805,6.029,-0.023,-0.014,-0.003,103.0,112.0,100.0,13.3,1505.3,326.8,-0.7,1.8,2470.431,13.33,0.026,238.7
2020-10-11T04:04:03,42.805,6.029,0.017,-0.001,-0.003,101.0,110.0,99.0,13.4,1505.3,326.4,-0.8,1.8,2470.454,13.31,0.017,93.4
2020-10-11T04:07:03,42.805,6.029,0.013,0.021,0.019,103.0,110.0,99.0,13.4,1505.3,327.6,-0.7,1.9,2470.466,13.32,0.024,31.8
2020-10-11T04:10:03,42.805,6.029,0.015,0.024,-0.002,101.0,110.0,100.0,13.4,1505.3,323.3,-0.8,1.8,2470.427,13.32,0.028,32.0
2020-10-11T04:13:03,42.805,6.029,0.026,0.016,0.028,101.0,109.0,100.0,13.3,1505.3,327.4,-0.7,1.8,2470.402,13.33,0.03,58.4
2020-10-11T04:16:03,42.805,6.029,-0.015,0.0,-0.015,101.0,112.0,100.0,13.4,1505.3,324.4,-0.7,1.8,2470.441,13.33,0.015,270.0
2020-10-11T04:19:03,42.805,6.029,-0.012,0.015,-0.03,101.0,111.0,101.0,13.4,1505.3,327.6,-0.7,1.8,2470.394,13.33,0.019,321.3
2020-10-11T04:22:03,42.805,6.029,0.009,-0.003,0.021,101.0,111.0,100.0,13.3,1505.3,325.5,-0.7,1.8,2470.43,13.33,0.009,108.4
2020-10-11T04:25:03,42.805,6.029,0.015,0.002,0.044,102.0,110.0,100.0,13.4,1505.3,327.7,-0.7,1.8,2470.383,13.33,0.015,82.4
2020-10-11T04:28:03,42.805,6.029,0.021,-0.008,0.011,103.0,111.0,99.0,13.3,1505.3,324.8,-0.7,1.8,2470.402,13.33,0.022,110.9
2020-10-11T04:31:03,42.805,6.029,0.002,0.013,0.012,103.0,112.0,100.0,13.3,1505.3,325.4,-0.7,1.8,2470.441,13.33,0.013,8.7
2020-10-11T04:34:03,42.805,6.029,0.006,-0.002,0.015,102.0,112.0,100.0,13.3,1505.3,325.2,-0.7,1.8,2470.414,13.33,0.006,108.4
2020-10-11T04:37:03,42.805,6.029,0.022,0.007,0.028,102.0,111.0,100.0,13.4,1505.3,324.4,-0.7,1.9,2470.395,13.33,0.023,72.4
2020-10-11T04:40:03,42.805,6.029,0.009,0.002,0.012,102.0,110.0,100.0,13.3,1505.3,325.4,-0.7,1.8,2470.399,13.33,0.009,77.5
2020-10-11T04:43:03,42.805,6.029,-0.005,-0.01,0.021,103.0,111.0,99.0,13.4,1505.3,324.4,-0.7,1.8,2470.398,13.33,0.011,206.6
2020-10-11T04:46:03,42.805,6.029,-0.002,0.004,0.003,101.0,110.0,101.0,13.4,1505.3,328.8,-0.7,1.8,2470.37,13.33,0.004,333.4
2020-10-11T04:49:03,42.805,6.029,0.027,-0.002,0.038,102.0,110.0,100.0,13.3,1505.3,326.5,-0.7,1.8,2470.434,13.33,0.027,94.2
2020-10-11T04:52:03,42.805,6.029,0.01,0.011,0.013,100.0,109.0,100.0,13.4,1505.3,326.2,-0.7,1.8,2470.372,13.33,0.014,42.3
2020-10-11T04:55:03,42.805,6.029,0.02,-0.005,0.025,102.0,108.0,100.0,13.3,1505.3,324.3,-0.7,1.8,2470.418,13.33,0.02,104.0
2020-10-11T04:58:03,42.805,6.029,0.008,-0.018,-0.012,102.0,110.0,99.0,13.4,1505.3,326.7,-0.7,1.8,2470.424,13.33,0.019,156.0
2020-10-11T05:04:03,42.805,6.029,0.0,0.009,-0.023,102.0,111.0,100.0,13.4,1505.3,328.2,-0.7,1.8,2470.411,13.31,0.009,0.0
2020-10-11T05:07:03,42.805,6.029,0.006,0.013,-0.005,102.0,110.0,100.0,13.4,1505.3,322.6,-0.7,1.8,2470.439,13.32,0.014,24.8
2020-10-11T05:10:03,42.805,6.029,0.01,0.027,0.054,102.0,110.0,100.0,13.4,1505.3,327.3,-0.7,1.8,2470.445,13.32,0.028,20.3
2020-10-11T05:13:03,42.805,6.029,0.013,-0.017,-0.018,101.0,110.0,99.0,13.4,1505.3,326.7,-0.7,1.9,2470.431,13.32,0.021,142.6
2020-10-11T05:16:03,42.805,6.029,0.025,-0.007,0.015,102.0,110.0,99.0,13.4,1505.3,328.4,-0.7,1.9,2470.421,13.33,0.025,105.6
2020-10-11T05:19:03,42.805,6.029,0.007,0.019,-0.004,102.0,110.0,100.0,13.3,1505.3,324.3,-0.7,1.8,2470.399,13.33,0.02,20.2
2020-10-11T05:22:03,42.805,6.029,0.0,0.022,0.002,101.0,110.0,101.0,13.4,1505.3,324.0,-0.7,1.8,2470.425,13.33,0.022,0.0
2020-10-11T05:25:03,42.805,6.029,0.009,0.011,0.01,101.0,110.0,99.0,13.3,1505.3,325.2,-0.7,1.8,2470.415,13.33,0.014,39.3
2020-10-11T05:28:03,42.805,6.029,0.0,0.006,0.008,102.0,109.0,100.0,13.4,1505.3,324.6,-0.7,1.8,2470.432,13.33,0.006,0.0
2020-10-11T05:31:03,42.805,6.029,0.009,0.008,0.023,101.0,110.0,100.0,13.4,1505.3,325.0,-0.7,1.8,2470.39,13.33,0.012,48.4
2020-10-11T05:34:03,42.805,6.029,0.025,-0.003,0.026,102.0,111.0,100.0,13.4,1505.3,328.4,-0.7,1.8,2470.397,13.33,0.025,96.8
2020-10-11T05:37:03,42.805,6.029,0.007,0.011,0.024,101.0,110.0,99.0,13.3,1505.3,326.5,-0.7,1.9,2470.382,13.33,0.013,32.5
2020-10-11T05:40:03,42.805,6.029,-0.004,-0.004,0.002,101.0,111.0,100.0,13.3,1505.3,326.5,-0.7,1.8,2470.387,13.33,0.005,225.0
2020-10-11T05:43:03,42.805,6.029,-0.04,-0.001,-0.009,101.0,111.0,100.0,13.4,1505.3,324.2,-0.7,1.8,2470.404,13.33,0.04,268.6
2020-10-11T05:46:03,42.805,6.029,-0.006,0.005,0.009,102.0,111.0,100.0,13.4,1505.3,325.0,-0.7,1.8,2470.394,13.33,0.007,309.8
2020-10-11T05:49:03,42.805,6.029,-0.013,0.004,-0.034,102.0,110.0,101.0,13.4,1505.3,328.1,-0.7,1.8,2470.347,13.33,0.013,287.1
2020-10-11T05:52:03,42.805,6.029,0.024,0.012,0.017,102.0,108.0,100.0,13.4,1505.3,323.2,-0.7,1.8,2470.346,13.33,0.026,63.4
2020-10-11T05:55:03,42.805,6.029,-0.021,-0.002,-0.03,103.0,111.0,100.0,13.3,1505.3,325.4,-0.7,1.8,2470.319,13.33,0.021,264.6
2020-10-11T05:58:03,42.805,6.029,0.01,0.011,-0.001,102.0,112.0,101.0,13.4,1505.3,327.1,-0.7,1.8,2470.36,13.33,0.014,42.3
2020-10-11T06:04:03,42.805,6.029,0.009,0.005,0.005,101.0,110.0,99.0,13.4,1505.3,326.5,-0.7,1.8,2470.416,13.31,0.01,60.9
2020-10-11T06:07:03,42.805,6.029,0.024,0.016,0.031,102.0,109.0,99.0,13.3,1505.3,325.6,-0.7,1.8,2470.389,13.31,0.028,56.3
2020-10-11T06:10:03,42.805,6.029,0.009,-0.019,0.009,101.0,109.0,101.0,13.3,1505.3,325.0,-0.7,1.9,2470.363,13.32,0.021,154.7
2020-10-11T06:13:03,42.805,6.029,0.0,-0.006,0.006,103.0,108.0,100.0,13.3,1505.3,325.9,-0.7,1.8,2470.393,13.32,0.006,180.0
2020-10-11T06:16:03,42.805,6.029,-0.015,-0.005,-0.021,102.0,115.0,100.0,13.4,1505.3,322.9,-0.7,1.8,2470.399,13.32,0.015,251.6
2020-10-11T06:19:03,42.805,6.029,0.009,-0.001,-0.008,100.0,107.0,101.0,13.4,1505.3,326.7,-0.7,1.8,2470.416,13.32,0.009,96.3
2020-10-11T06:22:03,42.805,6.029,0.006,0.011,0.0,101.0,108.0,99.0,13.4,1505.3,327.7,-0.7,1.8,2470.404,13.32,0.012,28.6
2020-10-11T06:25:03,42.805,6.029,0.006,0.01,0.031,104.0,107.0,99.0,13.3,1505.3,324.9,-0.7,1.8,2470.376,13.32,0.011,31.0
2020-10-11T06:28:03,42.805,6.029,-0.003,0.003,0.007,103.0,107.0,100.0,13.4,1505.3,326.8,-0.7,1.8,2470.367,13.32,0.004,315.0
2020-10-11T06:31:03,42.805,6.029,0.012,0.016,0.045,102.0,108.0,100.0,13.4,1505.3,322.9,-0.7,1.8,2470.369,13.32,0.02,36.9
2020-10-11T06:34:03,42.805,6.029,0.029,0.004,0.036,102.0,107.0,100.0,13.3,1505.3,325.3,-0.7,1.8,2470.365,13.32,0.029,82.2
2020-10-11T06:37:03,42.805,6.029,0.046,0.015,0.052,101.0,106.0,99.0,13.4,1505.3,324.5,-0.7,1.8,2470.366,13.33,0.048,71.9
2020-10-11T06:40:03,42.805,6.029,0.031,-0.003,0.041,102.0,107.0,99.0,13.4,1505.3,327.5,-0.7,1.9,2470.375,13.32,0.031,95.5
2020-10-11T06:43:03,42.805,6.029,0.036,0.012,0.01,101.0,106.0,100.0,13.4,1505.3,327.1,-0.7,1.8,2470.384,13.32,0.037,71.6
2020-10-11T06:46:03,42.805,6.029,0.009,-0.011,-0.018,102.0,107.0,99.0,13.4,1505.3,323.4,-0.7,1.8,2470.368,13.32,0.014,140.7
2020-10-11T06:49:03,42.805,6.029,0.044,0.009,-0.014,101.0,110.0,100.0,13.4,1505.3,323.8,-0.7,1.8,2470.378,13.32,0.044,78.4
2020-10-11T06:52:03,42.805,6.029,0.007,0.008,-0.015,102.0,107.0,100.0,13.3,1505.3,323.5,-0.7,1.8,2470.337,13.32,0.01,41.2
2020-10-11T06:55:03,42.805,6.029,0.034,0.014,0.018,102.0,109.0,100.0,13.4,1505.3,326.9,-0.7,1.9,2470.365,13.32,0.036,67.6
2020-10-11T06:58:03,42.805,6.029,-0.001,-0.006,-0.064,101.0,109.0,101.0,13.4,1505.3,324.1,-0.7,1.8,2470.344,13.32,0.006,189.5
2020-10-11T07:04:03,42.805,6.029,0.0,0.007,0.0,100.0,109.0,100.0,13.4,1505.2,323.7,-0.7,1.8,2470.417,13.3,0.007,0.0
2020-10-11T07:07:03,42.805,6.029,0.006,0.011,-0.014,101.0,111.0,100.0,13.4,1505.3,325.1,-0.7,1.8,2470.442,13.31,0.012,28.6
2020-10-11T07:10:03,42.805,6.029,-0.003,-0.011,-0.01,102.0,109.0,99.0,13.4,1505.3,325.2,-0.7,1.8,2470.382,13.32,0.011,195.3
2020-10-11T07:13:03,42.805,6.029,0.012,0.011,-0.039,102.0,111.0,100.0,13.4,1505.3,324.9,-0.7,1.8,2470.389,13.32,0.016,47.5
2020-10-11T07:16:03,42.805,6.029,0.032,0.022,0.049,102.0,109.0,101.0,13.4,1505.3,326.0,-0.7,1.8,2470.389,13.32,0.038,55.5
2020-10-11T07:19:03,42.805,6.029,0.022,0.013,0.005,101.0,110.0,100.0,13.4,1505.3,324.6,-0.7,1.8,2470.395,13.32,0.025,59.4
2020-10-11T07:22:03,42.805,6.029,0.008,-0.006,-0.006,102.0,110.0,99.0,13.4,1505.3,323.4,-0.7,1.8,2470.398,13.32,0.01,126.9
2020-10-11T07:25:03,42.805,6.029,0.027,0.024,0.011,101.0,109.0,100.0,13.4,1505.3,326.0,-0.7,1.8,2470.386,13.32,0.036,48.4
2020-10-11T07:28:03,42.805,6.029,-0.002,0.007,-0.04,102.0,111.0,100.0,13.3,1505.3,327.0,-0.7,1.8,2470.378,13.32,0.007,344.1
2020-10-11T07:31:03,42.805,6.029,-0.002,-0.02,-0.033,102.0,109.0,99.0,13.3,1505.3,327.0,-0.7,1.8,2470.403,13.32,0.02,185.7
2020-10-11T07:34:03,42.805,6.029,0.001,0.012,0.01,102.0,110.0,99.0,13.4,1505.3,327.1,-0.7,1.8,2470.357,13.32,0.012,4.8
2020-10-11T07:37:03,42.805,6.029,0.033,0.01,0.015,102.0,107.0,100.0,13.4,1505.3,325.1,-0.7,1.9,2470.372,13.32,0.034,73.1
2020-10-11T07:40:03,42.805,6.029,-0.017,-0.001,-0.008,101.0,111.0,99.0,13.4,1505.3,327.2,-0.7,1.8,2470.378,13.32,0.017,266.6
2020-10-11T07:43:03,42.805,6.029,-0.017,0.001,-0.02,102.0,111.0,100.0,13.4,1505.3,323.0,-0.7,1.8,2470.376,13.32,0.017,273.4
2020-10-11T07:46:03,42.805,6.029,-0.015,0.004,-0.025,101.0,110.0,100.0,13.4,1505.3,326.1,-0.7,1.8,2470.389,13.32,0.015,284.9
2020-10-11T07:49:03,42.805,6.029,0.027,-0.001,0.006,101.0,108.0,99.0,13.4,1505.3,326.1,-0.7,1.8,2470.376,13.32,0.027,92.1
2020-10-11T07:52:03,42.805,6.029,0.006,-0.016,-0.017,102.0,109.0,101.0,13.4,1505.3,326.3,-0.7,1.8,2470.38,13.32,0.017,159.4
2020-10-11T07:55:03,42.805,6.029,0.03,-0.011,-0.013,103.0,109.0,100.0,13.3,1505.3,326.7,-0.7,1.8,2470.379,13.32,0.031,110.1
2020-10-11T07:58:03,42.805,6.029,0.026,0.006,-0.02,102.0,108.0,100.0,13.3,1505.3,323.2,-0.7,1.8,2470.339,13.32,0.026,77.0
2020-10-11T08:04:03,42.805,6.029,0.03,0.007,0.008,102.0,107.0,101.0,13.4,1505.2,328.1,-0.7,1.8,2470.386,13.3,0.03,76.9
2020-10-11T08:07:03,42.805,6.029,0.009,-0.013,-0.008,103.0,107.0,100.0,13.4,1505.3,324.1,-0.7,1.8,2470.38,13.31,0.015,145.3
2020-10-11T08:10:03,42.805,6.029,0.011,0.011,0.012,101.0,108.0,100.0,13.4,1505.3,326.0,-0.7,1.8,2470.353,13.32,0.015,45.0
2020-10-11T08:13:03,42.805,6.029,0.018,-0.011,0.01,103.0,108.0,99.0,13.3,1505.3,326.3,-0.7,1.8,2470.385,13.32,0.021,121.4
2020-10-11T08:16:03,42.805,6.029,0.019,0.0,-0.031,101.0,109.0,100.0,13.4,1505.3,324.0,-0.7,1.8,2470.373,13.32,0.019,90.0
2020-10-11T08:19:03,42.805,6.029,0.035,-0.008,-0.007,102.0,108.0,101.0,13.4,1505.3,325.3,-0.7,1.9,2470.379,13.32,0.035,102.9
2020-10-11T08:22:03,42.805,6.029,0.014,-0.002,0.007,103.0,108.0,101.0,13.4,1505.3,328.0,-0.7,1.8,2470.368,13.32,0.014,98.1
2020-10-11T08:25:03,42.805,6.029,0.029,0.005,0.012,102.0,108.0,101.0,13.4,1505.3,323.2,-0.7,1.8,2470.414,13.32,0.029,80.2
2020-10-11T08:28:03,42.805,6.029,0.045,-0.013,0.009,102.0,108.0,100.0,13.4,1505.3,323.5,-0.7,1.8,2470.391,13.32,0.046,106.1
2020-10-11T08:31:03,42.805,6.029,0.053,-0.015,0.027,102.0,107.0,99.0,13.3,1505.3,326.3,-0.7,1.8,2470.376,13.32,0.055,105.8
2020-10-11T08:34:03,42.805,6.029,0.033,-0.002,-0.006,101.0,108.0,101.0,13.3,1505.3,328.3,-0.7,1.8,2470.351,13.32,0.033,93.5
2020-10-11T08:37:03,42.805,6.029,0.025,0.001,0.008,102.0,109.0,99.0,13.3,1505.3,325.4,-0.7,1.8,2470.378,13.32,0.025,87.7
2020-10-11T08:40:03,42.805,6.029,0.036,-0.001,0.018,102.0,110.0,100.0,13.4,1505.3,325.5,-0.7,1.9,2470.374,13.32,0.036,91.6
2020-10-11T08:43:03,42.805,6.029,0.057,-0.006,-0.001,102.0,109.0,100.0,13.4,1505.3,325.8,-0.7,1.8,2470.373,13.32,0.057,96.0
2020-10-11T08:49:03,42.805,6.029,0.028,-0.008,0.024,103.0,108.0,99.0,13.4,1505.2,325.4,-0.8,1.8,2470.412,13.3,0.029,105.9
2020-10-11T08:52:03,42.805,6.029,0.0,-0.003,-0.019,103.0,107.0,99.0,13.4,1505.3,324.5,-0.7,1.8,2470.38,13.31,0.003,180.0
2020-10-11T08:55:03,42.805,6.029,0.007,0.003,0.009,101.0,110.0,100.0,13.4,1505.3,324.3,-0.7,1.8,2470.458,13.31,0.007,66.8
2020-10-11T08:58:03,42.805,6.029,0.024,0.001,-0.018,101.0,108.0,99.0,13.3,1505.3,323.7,-0.7,1.8,2470.415,13.32,0.024,87.6
2020-10-11T09:04:03,42.805,6.029,-0.018,0.008,-0.011,101.0,106.0,100.0,13.4,1505.2,326.3,-0.7,1.8,2470.413,13.3,0.019,294.0
2020-10-11T09:07:03,42.805,6.029,0.049,-0.009,0.008,102.0,108.0,99.0,13.3,1505.3,325.4,-0.7,1.8,2470.452,13.31,0.049,100.4
2020-10-11T09:10:03,42.805,6.029,0.037,-0.02,-0.017,102.0,108.0,100.0,13.4,1505.3,324.6,-0.7,1.9,2470.468,13.31,0.042,118.4
2020-10-11T09:13:03,42.805,6.029,0.013,-0.01,-0.004,101.0,107.0,99.0,13.3,1505.3,327.1,-0.7,1.8,2470.421,13.32,0.016,127.6
2020-10-11T09:19:03,42.805,6.029,0.015,-0.01,0.01,100.0,107.0,100.0,13.4,1505.2,324.4,-0.8,1.8,2470.479,13.3,0.018,123.7
2020-10-11T09:22:03,42.805,6.029,0.024,-0.01,-0.025,101.0,107.0,101.0,13.3,1505.3,324.9,-0.7,1.8,2470.452,13.31,0.026,112.6
2020-10-11T09:25:03,42.805,6.029,0.021,-0.017,-0.007,101.0,108.0,99.0,13.3,1505.3,324.0,-0.7,1.9,2470.416,13.31,0.027,129.0
2020-10-11T09:28:03,42.805,6.029,0.019,-0.009,0.0,101.0,106.0,100.0,13.3,1505.3,328.4,-0.7,1.9,2470.409,13.32,0.021,115.3
2020-10-11T09:31:03,42.805,6.029,0.015,-0.008,0.0,103.0,108.0,100.0,13.4,1505.3,326.9,-0.7,1.8,2470.412,13.32,0.017,118.1
2020-10-11T09:34:03,42.805,6.029,0.015,-0.036,-0.011,101.0,108.0,101.0,13.4,1505.3,325.4,-0.7,1.8,2470.424,13.32,0.039,157.4
2020-10-11T09:37:03,42.805,6.029,0.043,-0.011,0.001,103.0,108.0,100.0,13.4,1505.3,324.2,-0.7,1.8,2470.395,13.32,0.044,104.3
2020-10-11T09:40:03,42.805,6.029,0.0,-0.005,0.0,103.0,106.0,100.0,13.4,1505.3,327.7,-0.7,1.8,2470.398,13.32,0.005,180.0
2020-10-11T09:43:03,42.805,6.029,0.031,0.01,-0.005,103.0,108.0,100.0,13.3,1505.3,323.1,-0.7,1.8,2470.379,13.32,0.032,72.1
2020-10-11T09:46:03,42.805,6.029,0.005,0.007,0.022,101.0,108.0,100.0,13.4,1505.3,325.6,-0.7,1.8,2470.436,13.32,0.008,35.5
2020-10-11T09:49:03,42.805,6.029,0.015,0.005,0.04,102.0,107.0,99.0,13.4,1505.3,323.9,-0.7,1.8,2470.456,13.32,0.015,71.6
2020-10-11T09:52:03,42.805,6.029,0.031,-0.014,0.01,101.0,107.0,100.0,13.4,1505.3,326.9,-0.7,1.9,2470.395,13.32,0.034,114.3
2020-10-11T09:55:03,42.805,6.029,0.047,-0.013,0.02,101.0,110.0,100.0,13.4,1505.3,324.1,-0.7,1.8,2470.411,13.32,0.048,105.5
2020-10-11T09:58:03,42.805,6.029,0.024,-0.007,0.026,102.0,106.0,101.0,13.4,1505.3,325.1,-0.7,1.8,2470.414,13.32,0.025,106.3
2020-10-11T10:04:03,42.805,6.029,0.025,-0.01,0.008,101.0,108.0,100.0,13.4,1505.2,326.4,-0.7,1.8,2470.468,13.3,0.026,111.8
2020-10-11T10:07:03,42.805,6.029,0.019,-0.011,0.0,102.0,107.0,100.0,13.3,1505.3,326.4,-0.7,1.8,2470.435,13.31,0.021,120.1
2020-10-11T10:10:03,42.805,6.029,0.046,-0.003,0.035,103.0,107.0,100.0,13.4,1505.3,324.2,-0.7,1.8,2470.433,13.31,0.046,93.7